Regional Weather Roundup
Issued by NWS

Home | Current Version | Previous Version | Graphics & Text | Print | Product List | Glossary On
Versions: 1 2 3 4 5 6 7 8 9 10 11 12 13 14 15 16 17 18 19 20 21 22 23 24 25 26 27 28 29 30 31 32 33 34 35 36 37 38 39 40 41 42 43 44 45 46 47 48 49 50
000
ASUS43 KLOT 031110
RWRIL

ILLINOIS REGIONAL WEATHER ROUNDUP
NATIONAL WEATHER SERVICE CHICAGO/ROMEOVILLE IL
500 AM CST TUE MAR 03 2015

NOTE: "FAIR" INDICATES FEW OR NO CLOUDS BELOW 12,000 FEET WITH NO
SIGNIFICANT WEATHER AND/OR OBSTRUCTIONS TO VISIBILITY.

* THESE STATIONS ARE NOT UNDER NWS QUALITY CONTROL. THEY ALSO MAY NOT
  REPORT WEATHER SUCH AS PRECIPITATION OR FOG.

ILZ001-002-007-009-015-016-024-031200-
NORTHWEST ILLINOIS

CITY           SKY/WX    TMP DP  RH WIND       PRES   REMARKS
MOLINE         FRZ RAIN  28  25  88 SE15      29.87F FOG     WCI  16
STERLING*      CLOUDY    27  23  86 SE12G17   29.94F WCI  16
SAVANNA*       LGT SNOW  25  23  89 SE18      29.90F WCI  12
$$

ILZ003-004-008-010-011-017-018-031200-
NORTH CENTRAL ILLINOIS

CITY           SKY/WX    TMP DP  RH WIND       PRES   REMARKS
ROCKFORD       SNOW      24  20  84 SE17      29.97F VSB 1/2 WCI  11
FREEPORT*      LGT SNOW  23  21  92 SE13      29.95F WCI  11
ROCHELLE*      LGT SNOW  24  22  92 SE17      29.99F WCI  10
DE KALB*       LGT SNOW  22  20  93 SE14      29.98F WCI   9
PERU*          DRIZZLE   29  26  87 SE16      29.98F WCI  17
$$

ILZ005-006-012>014-019>023-031200-
NORTHEAST ILLINOIS

CITY           SKY/WX    TMP DP  RH WIND       PRES   REMARKS
CHICAGO-OHARE  LGT SNOW  24  21  88 SE10      30.03F VSB 3/4 WCI  14
CHICAGO-MIDWAY LGT SNOW  27  20  75 SE9       30.05F VSB 3/4 WCI  18
AURORA         LGT SNOW  25  20  81 SE15      30.01F WCI  13
LANSING*       LGT SNOW  26  21  80 S9        30.10R WCI  17
JOLIET*        LGT SNOW  26  23  89 SE3       30.06F
WAUKEGAN       LGT SNOW  25  21  85 S16       30.04S VSB 3/4 WCI  12
DUPAGE AIRPORT LGT SNOW  24  21  88 SE12      30.00F FOG     WCI  13
KANKAKEE*      MIX PCPN  29  26  88 SE12G17   30.04F WCI  19
WHEELING       SNOW      24  22  91 SE9       30.05F VSB 1/2 WCI  14
MORRIS*        MIX PCPN  28  25  91 S8        30.04F WCI  19
ROMEOVILLE*    LGT SNOW  25  22  89 SE10      30.04F WCI  15
NORTHERLY ISL    N/A     27  19  72 S8          N/A  WCI  19
$$

LMZ740>746-031200-
SOUTHERN LAKE MICHIGAN

STATION/POSITION SKY/WX   TEMP    WIND        PRES    VSBY  WAVE
                          AIR SEA DIR/SP/G                  HT/PER
                          (F)     (DEG/KT/KT) (MB)    (MI)  (FT/S)
WAUKEGAN HARBOR            26     180/  8       N/A
HARRISON CRIB              27     170/ 17/ 21   N/A
BURNHAM HARBOR             26     140/  8/ 11   N/A
CALUMET HARBOR                    160/  7/ 11   N/A
MICHIGAN CITY              26     130/ 10/ 12   N/A
$$

ILZ025>027-034>036-040-047-049-050-058-095>099-031200-
WEST-CENTRAL ILLINOIS

CITY           SKY/WX    TMP DP  RH WIND       PRES   REMARKS
QUINCY         CLOUDY    28  25  88 SE12      29.90F FOG     WCI  18
GALESBURG*     MIX PCPN  27  26  96 SE10      29.89F WCI  17
MACOMB*        CLOUDY    28  28  98 S14       29.95F FOG     WCI  17
JACKSONVILLE*  MIX PCPN  31  28  85 SE9       29.95F WCI  23
PITTSFIELD*    CLOUDY    30  26  85 SE9       29.94F WCI  22
$$

ILZ028>032-037-038-041>044-048-051>054-059>061-031200-
CENTRAL ILLINOIS

CITY           SKY/WX    TMP DP  RH WIND       PRES   REMARKS
PONTIAC        CLOUDY    31  27  87 SE12      30.02F WCI  21
BLOOMINGTON    CLOUDY    28  26  92 SE14G22   29.99F FOG     WCI  17
DECATUR        CLOUDY    30  22  72 SE12      30.00F WCI  20
PEORIA         FRZ RAIN  30  25  81 SE8       29.98S WCI  22
LACON*         MIX PCPN  29  25  84 S10       29.99F WCI  20
LINCOLN*       LGT RAIN  31  25  79 SE12      29.99F WCI  21
SPRINGFIELD    FRZ RAIN  29  24  82 SE12      29.98F WCI  19
TAYLORVILLE    CLOUDY    30  23  74 SE8       30.00F WCI  23
$$

ILZ033-039-045-046-055>057-062-063-031200-
EAST-CENTRAL ILLINOIS

CITY           SKY/WX    TMP DP  RH WIND       PRES   REMARKS
CHAMPAIGN      MIX PCPN  28  24  85 E14       30.03F FOG     WCI  17
DANVILLE*      CLOUDY    27  23  82 SE8       30.04F WCI  19
RANTOUL*       MIX PCPN  29  25  84 SE13      30.04F WCI  19
MATTOON        CLOUDY    30  20  66 SE12      30.01F WCI  20
PARIS*         CLOUDY    30  22  74 CALM      30.07F
$$

ILZ079-100>102-031200-
SOUTHWEST ILLINOIS

CITY           SKY/WX    TMP DP  RH WIND       PRES   REMARKS
ALTON          CLOUDY    32  22  67 SE9       29.98F WCI  24
BELLEVILLE     CLOUDY    32  27  80 SE8       29.97F WCI  25
CAHOKIA*       CLOUDY    34  26  72 S7        29.98F WCI  28
SPARTA*        DRIZZLE   33  26  78 SE5       30.01F WCI  28
$$

ILZ064>066-069>071-074>076-080>082-084>086-088>090-092>094-031200-
SOUTH-CENTRAL ILLINOIS

CITY           SKY/WX    TMP DP  RH WIND       PRES   REMARKS
CARBONDALE     CLOUDY    37  26  64 S9        30.04F WCI  30
CAIRO*         CLOUDY    39  29  68 CALM      30.07S
EFFINGHAM*     CLOUDY    32  21  63 E12       30.03F WCI  23
MARION         CLOUDY    39  28  65 S9        30.05F WCI  33
MT. VERNON     CLOUDY    34  25  69 SE5       30.04F WCI  30
CENTRALIA*     CLOUDY    33  24  69 SE10      30.00F WCI  25
SALEM*         CLOUDY    35  25  67 SE8       30.03F WCI  29
METROPOLIS*    CLOUDY    38  29  71 CALM      30.08R
$$

ILZ067-068-072-073-078-083-087-091-031200-
SOUTHEAST ILLINOIS

CITY           SKY/WX    TMP DP  RH WIND       PRES   REMARKS
LAWRENCEVILLE  CLOUDY    33  24  69 SE9       30.08F WCI  25
FLORA*         CLOUDY    32  26  77 SE9       30.04F WCI  24
FAIRFIELD*     CLOUDY    34  26  72 SE7       30.04F WCI  28
HARRISBURG*    CLOUDY    34  29  80 SE5       30.09R WCI  30
ROBINSON*      CLOUDY    32  24  72 SE7       30.09F WCI  25
CARMI*         CLOUDY    36  30  80 SE9       30.06F WCI  29
$$

ABBREVIATIONS USED IN REMARKS
   TC - TEMPERATURE IN CELSIUS
  WCI - WIND CHILL INDEX
   HX - HEAT INDEX
  VSB - VISIBILITY
$$



USA.gov is the U.S. government's official web portal to all federal, state and local government web resources and services.